Time,TemperatureF,DewpointF,PressureIn,WindDirection,WindDirectionDegrees,WindSpeedMPH,WindSpeedGustMPH,Humidity,HourlyPrecipIn,Conditions,Clouds,dailyrainin,SolarRadiationWatts/m^2,SoftwareType,DateUTC
2013-10-30 00:11:00,50.0,46.0,-100.00,ESE,107,6.0,7.0,85,0.00,,,0.00,0.000000,,2013-10-30 07:11:00,
2013-10-30 00:21:00,50.0,46.0,-100.00,ESE,107,6.0,7.0,85,0.00,,,0.00,0.000000,,2013-10-30 07:21:00,
2013-10-30 00:32:00,50.0,46.0,-100.00,ESE,107,6.0,7.0,85,0.00,,,0.00,0.000000,,2013-10-30 07:32:00,
2013-10-30 00:42:00,50.0,46.0,-100.00,ESE,107,6.0,7.0,85,0.00,,,0.00,0.000000,,2013-10-30 07:42:00,
2013-10-30 01:21:00,50.0,45.0,-100.00,ESE,117,8.0,10.0,83,0.00,,,0.00,1.000000,,2013-10-30 08:21:00,
2013-10-30 01:32:00,50.0,45.0,-100.00,ESE,117,8.0,10.0,83,0.00,,,0.00,1.000000,,2013-10-30 08:32:00,
2013-10-30 01:42:00,50.0,45.0,-100.00,ESE,117,8.0,10.0,83,0.00,,,0.00,1.000000,,2013-10-30 08:42:00,
2013-10-30 02:22:00,50.0,44.0,-100.00,East,101,9.0,13.0,81,0.00,,,0.00,0.000000,,2013-10-30 09:22:00,
2013-10-30 02:33:00,50.0,44.0,-100.00,East,101,9.0,13.0,81,0.00,,,0.00,0.000000,,2013-10-30 09:33:00,
2013-10-30 02:42:00,50.0,44.0,-100.00,East,101,9.0,13.0,81,0.00,,,0.00,0.000000,,2013-10-30 09:42:00,
2013-10-30 03:12:00,49.0,42.0,-100.00,East,95,10.0,12.0,77,0.00,,,0.00,1.000000,,2013-10-30 10:12:00,
2013-10-30 03:23:00,49.0,42.0,-100.00,East,95,10.0,12.0,77,0.00,,,0.00,1.000000,,2013-10-30 10:23:00,
2013-10-30 03:33:00,49.0,42.0,-100.00,East,95,10.0,12.0,77,0.00,,,0.00,1.000000,,2013-10-30 10:33:00,
2013-10-30 03:43:00,49.0,42.0,-100.00,East,95,10.0,12.0,77,0.00,,,0.00,1.000000,,2013-10-30 10:43:00,
2013-10-30 04:12:00,47.0,40.0,-100.00,East,88,8.0,11.0,77,0.00,,,0.00,0.000000,,2013-10-30 11:12:00,
2013-10-30 04:22:00,47.0,40.0,-100.00,East,88,8.0,11.0,77,0.00,,,0.00,0.000000,,2013-10-30 11:22:00,
2013-10-30 04:33:00,47.0,40.0,-100.00,East,88,8.0,11.0,77,0.00,,,0.00,0.000000,,2013-10-30 11:33:00,
2013-10-30 04:42:00,47.0,40.0,-100.00,East,88,8.0,11.0,77,0.00,,,0.00,0.000000,,2013-10-30 11:42:00,
2013-10-30 05:12:00,49.0,40.0,-100.00,East,96,8.0,12.0,72,0.00,,,0.00,0.000000,,2013-10-30 12:12:00,
2013-10-30 05:22:00,49.0,40.0,-100.00,East,96,8.0,12.0,72,0.00,,,0.00,0.000000,,2013-10-30 12:22:00,
2013-10-30 05:32:00,49.0,40.0,-100.00,East,96,8.0,12.0,72,0.00,,,0.00,0.000000,,2013-10-30 12:32:00,
2013-10-30 05:42:00,49.0,40.0,-100.00,East,96,8.0,12.0,72,0.00,,,0.00,0.000000,,2013-10-30 12:42:00,
2013-10-30 07:11:00,48.0,39.0,-100.00,East,87,10.0,11.0,70,-99.99,,,0.00,0.000000,,2013-10-30 14:11:00,
2013-10-30 07:21:00,48.0,39.0,-100.00,East,87,10.0,11.0,70,-99.99,,,0.00,0.000000,,2013-10-30 14:21:00,
2013-10-30 07:32:00,48.0,39.0,-100.00,East,87,10.0,11.0,70,-99.99,,,0.00,0.000000,,2013-10-30 14:32:00,
2013-10-30 07:42:00,48.0,39.0,-100.00,East,87,10.0,11.0,70,-99.99,,,0.00,0.000000,,2013-10-30 14:42:00,
2013-10-30 09:23:00,53.0,36.0,-100.00,East,90,14.0,17.0,53,-99.99,,,0.00,168.000000,,2013-10-30 16:23:00,
2013-10-30 09:33:00,53.0,36.0,-100.00,East,90,14.0,17.0,53,-99.99,,,0.00,168.000000,,2013-10-30 16:33:00,
2013-10-30 09:42:00,53.0,36.0,-100.00,East,90,14.0,17.0,53,-99.99,,,0.00,168.000000,,2013-10-30 16:42:00,
2013-10-30 10:22:00,57.0,35.0,-100.00,East,87,17.0,22.0,43,0.00,,,0.00,353.000000,,2013-10-30 17:22:00,
2013-10-30 10:33:00,57.0,35.0,-100.00,East,87,17.0,22.0,43,0.00,,,0.00,353.000000,,2013-10-30 17:33:00,
2013-10-30 10:42:00,57.0,35.0,-100.00,East,87,17.0,22.0,43,0.00,,,0.00,353.000000,,2013-10-30 17:42:00,
2013-10-30 11:21:00,60.0,34.0,-100.00,ENE,68,15.0,22.0,38,0.00,,,0.00,512.000000,,2013-10-30 18:21:00,
2013-10-30 11:32:00,60.0,34.0,-100.00,ENE,68,15.0,22.0,38,0.00,,,0.00,512.000000,,2013-10-30 18:32:00,
2013-10-30 11:42:00,60.0,34.0,-100.00,ENE,68,15.0,22.0,38,0.00,,,0.00,512.000000,,2013-10-30 18:42:00,
2013-10-30 12:21:00,63.0,32.0,-100.00,ENE,75,12.0,23.0,31,0.00,,,0.00,623.000000,,2013-10-30 19:21:00,
2013-10-30 12:32:00,63.0,32.0,-100.00,ENE,75,12.0,23.0,31,0.00,,,0.00,623.000000,,2013-10-30 19:32:00,
2013-10-30 12:42:00,63.0,32.0,-100.00,ENE,75,12.0,23.0,31,0.00,,,0.00,623.000000,,2013-10-30 19:42:00,
2013-10-30 13:12:00,65.0,30.0,-100.00,ENE,70,11.0,19.0,27,0.00,,,0.00,677.000000,,2013-10-30 20:12:00,
2013-10-30 13:21:00,65.0,30.0,-100.00,ENE,70,11.0,19.0,27,0.00,,,0.00,677.000000,,2013-10-30 20:21:00,
2013-10-30 13:32:00,65.0,30.0,-100.00,ENE,70,11.0,19.0,27,0.00,,,0.00,677.000000,,2013-10-30 20:32:00,
2013-10-30 13:42:00,65.0,30.0,-100.00,ENE,70,11.0,19.0,27,0.00,,,0.00,677.000000,,2013-10-30 20:42:00,
2013-10-30 14:21:00,67.0,30.0,-100.00,East,94,4.0,16.0,25,0.00,,,0.00,665.000000,,2013-10-30 21:21:00,
2013-10-30 14:33:00,67.0,30.0,-100.00,East,94,4.0,16.0,25,0.00,,,0.00,665.000000,,2013-10-30 21:33:00,
2013-10-30 14:43:00,67.0,30.0,-100.00,East,94,4.0,16.0,25,0.00,,,0.00,665.000000,,2013-10-30 21:43:00,
2013-10-30 15:13:00,67.0,29.0,-100.00,SE,127,5.0,16.0,24,0.00,,,0.00,592.000000,,2013-10-30 22:13:00,
2013-10-30 15:23:00,67.0,29.0,-100.00,SE,127,5.0,16.0,24,0.00,,,0.00,592.000000,,2013-10-30 22:23:00,
2013-10-30 15:34:00,67.0,29.0,-100.00,SE,127,5.0,16.0,24,0.00,,,0.00,592.000000,,2013-10-30 22:34:00,
2013-10-30 15:43:00,67.0,29.0,-100.00,SE,127,5.0,16.0,24,0.00,,,0.00,592.000000,,2013-10-30 22:43:00,
2013-10-30 16:12:00,65.0,37.0,-100.00,WSW,256,14.0,20.0,36,0.00,,,0.00,463.000000,,2013-10-30 23:12:00,
2013-10-30 16:22:00,65.0,37.0,-100.00,WSW,256,14.0,20.0,36,0.00,,,0.00,463.000000,,2013-10-30 23:22:00,
2013-10-30 16:33:00,65.0,37.0,-100.00,WSW,256,14.0,20.0,36,0.00,,,0.00,463.000000,,2013-10-30 23:33:00,
2013-10-30 16:42:00,65.0,37.0,-100.00,WSW,256,14.0,20.0,36,0.00,,,0.00,463.000000,,2013-10-30 23:42:00,
2013-10-30 17:11:00,62.0,37.0,-100.00,SW,228,16.0,22.0,40,0.00,,,0.00,296.000000,,2013-10-31 00:11:00,
2013-10-30 17:22:00,62.0,37.0,-100.00,SW,228,16.0,22.0,40,0.00,,,0.00,296.000000,,2013-10-31 00:22:00,
2013-10-30 17:32:00,62.0,37.0,-100.00,SW,228,16.0,22.0,40,0.00,,,0.00,296.000000,,2013-10-31 00:32:00,
2013-10-30 17:42:00,62.0,37.0,-100.00,SW,228,16.0,22.0,40,0.00,,,0.00,296.000000,,2013-10-31 00:42:00,
2013-10-30 18:12:00,59.0,44.0,-100.00,SW,222,14.0,21.0,57,0.00,,,0.00,112.000000,,2013-10-31 01:12:00,
2013-10-30 18:22:00,59.0,44.0,-100.00,SW,222,14.0,21.0,57,0.00,,,0.00,112.000000,,2013-10-31 01:22:00,
2013-10-30 18:32:00,59.0,44.0,-100.00,SW,222,14.0,21.0,57,0.00,,,0.00,112.000000,,2013-10-31 01:32:00,
2013-10-30 18:42:00,59.0,44.0,-100.00,SW,222,14.0,21.0,57,0.00,,,0.00,112.000000,,2013-10-31 01:42:00,
2013-10-30 19:22:00,56.0,45.0,-100.00,SW,230,13.0,20.0,67,0.00,,,0.00,4.000000,,2013-10-31 02:22:00,
2013-10-30 19:32:00,56.0,45.0,-100.00,SW,230,13.0,20.0,67,0.00,,,0.00,4.000000,,2013-10-31 02:32:00,
2013-10-30 19:41:00,56.0,45.0,-100.00,SW,230,13.0,20.0,67,0.00,,,0.00,4.000000,,2013-10-31 02:41:00,
2013-10-30 20:11:00,54.0,42.0,-100.00,WSW,251,4.0,14.0,64,0.00,,,0.00,0.000000,,2013-10-31 03:11:00,
2013-10-30 20:22:00,54.0,42.0,-100.00,WSW,251,4.0,14.0,64,0.00,,,0.00,0.000000,,2013-10-31 03:22:00,
2013-10-30 20:34:00,54.0,42.0,-100.00,WSW,251,4.0,14.0,64,0.00,,,0.00,0.000000,,2013-10-31 03:34:00,
2013-10-30 20:44:00,54.0,42.0,-100.00,WSW,251,4.0,14.0,64,0.00,,,0.00,0.000000,,2013-10-31 03:44:00,
2013-10-30 21:23:00,55.0,41.0,-100.00,East,90,0.0,4.0,59,0.00,,,0.00,0.000000,,2013-10-31 04:23:00,
2013-10-30 21:34:00,55.0,41.0,-100.00,East,90,0.0,4.0,59,0.00,,,0.00,0.000000,,2013-10-31 04:34:00,
2013-10-30 21:43:00,55.0,41.0,-100.00,East,90,0.0,4.0,59,0.00,,,0.00,0.000000,,2013-10-31 04:43:00,
2013-10-30 22:13:00,55.0,41.0,-100.00,East,99,6.0,9.0,59,0.00,,,0.00,0.000000,,2013-10-31 05:13:00,
2013-10-30 22:23:00,55.0,41.0,-100.00,East,99,6.0,9.0,59,0.00,,,0.00,0.000000,,2013-10-31 05:23:00,
2013-10-30 22:33:00,55.0,41.0,-100.00,East,99,6.0,9.0,59,0.00,,,0.00,0.000000,,2013-10-31 05:33:00,
2013-10-30 22:43:00,55.0,41.0,-100.00,East,99,6.0,9.0,59,0.00,,,0.00,0.000000,,2013-10-31 05:43:00,
2013-10-30 23:12:00,55.0,43.0,-100.00,ESE,107,2.0,12.0,64,-99.99,,,0.00,0.000000,,2013-10-31 06:12:00,
2013-10-30 23:22:00,55.0,43.0,-100.00,ESE,107,2.0,12.0,64,-99.99,,,0.00,0.000000,,2013-10-31 06:22:00,
2013-10-30 23:33:00,55.0,43.0,-100.00,ESE,107,2.0,12.0,64,-99.99,,,0.00,0.000000,,2013-10-31 06:33:00,